Time,TemperatureF,DewpointF,PressureIn,WindDirection,WindDirectionDegrees,WindSpeedMPH,WindSpeedGustMPH,Humidity,HourlyPrecipIn,Conditions,Clouds,dailyrainin,SoftwareType,DateUTC
2013-02-19 00:02:00,38.3,35.6,29.86,SE,135,5.0,-999.0,90,0.00,,,0.00,Wunderground v.1.15,2013-02-19 08:02:00,
2013-02-19 00:07:00,38.3,35.6,29.86,SE,135,5.0,-999.0,90,0.00,,,0.00,Wunderground v.1.15,2013-02-19 08:07:00,
2013-02-19 00:12:00,38.3,35.6,29.86,SE,135,5.0,-999.0,90,0.00,,,0.00,Wunderground v.1.15,2013-02-19 08:12:00,
2013-02-19 00:17:00,38.3,35.6,29.86,SE,135,5.0,-999.0,90,0.00,,,0.00,Wunderground v.1.15,2013-02-19 08:17:00,
2013-02-19 00:22:00,38.3,35.6,29.86,SE,135,5.0,-999.0,90,0.00,,,0.00,Wunderground v.1.15,2013-02-19 08:22:00,
2013-02-19 00:27:00,38.3,35.6,29.86,SE,135,5.0,-999.0,90,0.00,,,0.00,Wunderground v.1.15,2013-02-19 08:27:00,
2013-02-19 00:32:00,38.3,35.6,29.86,SE,135,5.0,-999.0,90,0.00,,,0.00,Wunderground v.1.15,2013-02-19 08:32:00,
2013-02-19 00:37:00,38.3,35.6,29.86,SE,135,5.0,-999.0,90,0.00,,,0.00,Wunderground v.1.15,2013-02-19 08:37:00,
2013-02-19 00:42:00,38.3,35.6,29.86,SE,135,5.0,-999.0,90,0.00,,,0.00,Wunderground v.1.15,2013-02-19 08:42:00,
2013-02-19 00:47:00,37.9,35.5,29.85,SE,135,5.0,-999.0,91,0.00,,,0.00,Wunderground v.1.15,2013-02-19 08:47:00,
2013-02-19 00:52:00,37.9,35.5,29.85,SE,135,5.0,-999.0,91,0.00,,,0.00,Wunderground v.1.15,2013-02-19 08:52:00,
2013-02-19 00:57:00,37.9,35.5,29.85,SE,135,5.0,-999.0,91,0.00,,,0.00,Wunderground v.1.15,2013-02-19 08:57:00,
2013-02-19 01:02:00,37.9,35.5,29.85,SE,135,5.0,-999.0,91,0.00,,,0.00,Wunderground v.1.15,2013-02-19 09:02:00,
2013-02-19 01:07:00,37.9,35.5,29.85,SE,135,5.0,-999.0,91,0.00,,,0.00,Wunderground v.1.15,2013-02-19 09:07:00,
2013-02-19 01:12:00,37.9,35.5,29.85,SE,135,5.0,-999.0,91,0.00,,,0.00,Wunderground v.1.15,2013-02-19 09:12:00,
2013-02-19 01:17:00,37.9,35.5,29.85,SE,135,4.0,-999.0,91,0.00,,,0.00,Wunderground v.1.15,2013-02-19 09:17:00,
2013-02-19 01:22:00,37.9,35.5,29.85,SE,135,4.0,-999.0,91,0.00,,,0.00,Wunderground v.1.15,2013-02-19 09:22:00,
2013-02-19 01:27:00,37.9,35.5,29.85,SE,135,4.0,-999.0,91,0.00,,,0.00,Wunderground v.1.15,2013-02-19 09:27:00,
2013-02-19 01:32:00,37.9,35.5,29.85,SE,135,4.0,-999.0,91,0.00,,,0.00,Wunderground v.1.15,2013-02-19 09:32:00,
2013-02-19 01:37:00,37.9,35.5,29.85,SE,135,4.0,-999.0,91,0.00,,,0.00,Wunderground v.1.15,2013-02-19 09:37:00,
2013-02-19 01:42:00,37.9,35.5,29.85,SE,135,4.0,-999.0,91,0.00,,,0.00,Wunderground v.1.15,2013-02-19 09:42:00,
2013-02-19 01:47:00,37.5,34.8,29.85,SE,135,5.0,-999.0,90,0.00,,,0.00,Wunderground v.1.15,2013-02-19 09:47:00,
2013-02-19 01:52:00,37.5,34.8,29.85,SE,135,5.0,-999.0,90,0.00,,,0.00,Wunderground v.1.15,2013-02-19 09:52:00,
2013-02-19 01:57:00,37.5,34.8,29.85,SE,135,5.0,-999.0,90,0.00,,,0.00,Wunderground v.1.15,2013-02-19 09:57:00,
2013-02-19 02:02:00,37.5,34.8,29.85,SE,135,5.0,-999.0,90,0.00,,,0.00,Wunderground v.1.15,2013-02-19 10:02:00,
2013-02-19 02:07:00,37.5,34.8,29.85,SE,135,5.0,-999.0,90,0.00,,,0.00,Wunderground v.1.15,2013-02-19 10:07:00,
2013-02-19 02:12:00,37.5,34.8,29.85,SE,135,5.0,-999.0,90,0.00,,,0.00,Wunderground v.1.15,2013-02-19 10:12:00,
2013-02-19 02:17:00,37.1,34.4,29.84,SE,135,5.0,-999.0,90,0.00,,,0.00,Wunderground v.1.15,2013-02-19 10:17:00,
2013-02-19 02:22:00,37.1,34.4,29.84,SE,135,5.0,-999.0,90,0.00,,,0.00,Wunderground v.1.15,2013-02-19 10:22:00,
2013-02-19 02:27:00,37.1,34.4,29.84,SE,135,5.0,-999.0,90,0.00,,,0.00,Wunderground v.1.15,2013-02-19 10:27:00,
2013-02-19 02:32:00,37.1,34.4,29.84,SE,135,5.0,-999.0,90,0.00,,,0.00,Wunderground v.1.15,2013-02-19 10:32:00,
2013-02-19 02:37:00,37.1,34.4,29.84,SE,135,5.0,-999.0,90,0.00,,,0.00,Wunderground v.1.15,2013-02-19 10:37:00,
2013-02-19 02:42:00,37.1,34.4,29.84,SE,135,5.0,-999.0,90,0.00,,,0.00,Wunderground v.1.15,2013-02-19 10:42:00,
2013-02-19 02:47:00,36.8,33.9,29.83,SE,135,5.0,-999.0,89,0.00,,,0.00,Wunderground v.1.15,2013-02-19 10:47:00,
2013-02-19 02:52:00,36.8,33.9,29.83,SE,135,5.0,-999.0,89,0.00,,,0.00,Wunderground v.1.15,2013-02-19 10:52:00,
2013-02-19 02:57:00,36.8,33.9,29.83,SE,135,5.0,-999.0,89,0.00,,,0.00,Wunderground v.1.15,2013-02-19 10:57:00,
2013-02-19 03:02:00,36.8,33.9,29.83,SE,135,5.0,-999.0,89,0.00,,,0.00,Wunderground v.1.15,2013-02-19 11:02:00,
2013-02-19 03:07:00,36.8,33.9,29.83,SE,135,5.0,-999.0,89,0.00,,,0.00,Wunderground v.1.15,2013-02-19 11:07:00,
2013-02-19 03:12:00,36.8,33.9,29.83,SE,135,5.0,-999.0,89,0.00,,,0.00,Wunderground v.1.15,2013-02-19 11:12:00,
2013-02-19 03:17:00,36.7,33.8,29.82,SE,135,5.0,-999.0,89,0.00,,,0.00,Wunderground v.1.15,2013-02-19 11:17:00,
2013-02-19 03:22:00,36.7,33.8,29.82,SE,135,5.0,-999.0,89,0.00,,,0.00,Wunderground v.1.15,2013-02-19 11:22:00,
2013-02-19 03:27:00,36.7,33.8,29.82,SE,135,5.0,-999.0,89,0.00,,,0.00,Wunderground v.1.15,2013-02-19 11:27:00,
2013-02-19 03:32:00,36.7,33.8,29.82,SE,135,5.0,-999.0,89,0.00,,,0.00,Wunderground v.1.15,2013-02-19 11:32:00,
2013-02-19 03:37:00,36.7,33.8,29.82,SE,135,5.0,-999.0,89,0.00,,,0.00,Wunderground v.1.15,2013-02-19 11:37:00,
2013-02-19 03:42:00,36.7,33.8,29.82,SE,135,5.0,-999.0,89,0.00,,,0.00,Wunderground v.1.15,2013-02-19 11:42:00,
2013-02-19 03:47:00,36.4,33.5,29.82,SE,135,6.0,-999.0,89,0.00,,,0.00,Wunderground v.1.15,2013-02-19 11:47:00,
2013-02-19 03:52:00,36.4,33.5,29.82,SE,135,6.0,-999.0,89,0.00,,,0.00,Wunderground v.1.15,2013-02-19 11:52:00,
2013-02-19 03:57:00,36.4,33.5,29.82,SE,135,6.0,-999.0,89,0.00,,,0.00,Wunderground v.1.15,2013-02-19 11:57:00,
2013-02-19 04:02:00,36.4,33.5,29.82,SE,135,6.0,-999.0,89,0.00,,,0.00,Wunderground v.1.15,2013-02-19 12:02:00,
2013-02-19 04:07:00,36.4,33.5,29.82,SE,135,6.0,-999.0,89,0.00,,,0.00,Wunderground v.1.15,2013-02-19 12:07:00,
2013-02-19 04:12:00,36.4,33.5,29.82,SE,135,6.0,-999.0,89,0.00,,,0.00,Wunderground v.1.15,2013-02-19 12:12:00,
2013-02-19 04:17:00,36.2,33.5,29.82,SSE,158,5.0,-999.0,90,0.00,,,0.00,Wunderground v.1.15,2013-02-19 12:17:00,
2013-02-19 04:22:00,36.2,33.5,29.82,SSE,158,5.0,-999.0,90,0.00,,,0.00,Wunderground v.1.15,2013-02-19 12:22:00,
2013-02-19 04:27:00,36.2,33.5,29.82,SSE,158,5.0,-999.0,90,0.00,,,0.00,Wunderground v.1.15,2013-02-19 12:27:00,
2013-02-19 04:32:00,36.2,33.5,29.82,SSE,158,5.0,-999.0,90,0.00,,,0.00,Wunderground v.1.15,2013-02-19 12:32:00,
2013-02-19 04:37:00,36.2,33.5,29.82,SSE,158,5.0,-999.0,90,0.00,,,0.00,Wunderground v.1.15,2013-02-19 12:37:00,
2013-02-19 04:42:00,36.2,33.5,29.82,SSE,158,5.0,-999.0,90,0.00,,,0.00,Wunderground v.1.15,2013-02-19 12:42:00,
2013-02-19 04:47:00,36.1,33.5,29.83,SE,135,4.0,-999.0,90,0.00,,,0.00,Wunderground v.1.15,2013-02-19 12:47:00,
2013-02-19 04:52:00,36.1,33.5,29.83,SE,135,4.0,-999.0,90,0.00,,,0.00,Wunderground v.1.15,2013-02-19 12:52:00,
2013-02-19 05:07:00,36.1,33.5,29.83,SE,135,4.0,-999.0,90,0.00,,,0.00,Wunderground v.1.15,2013-02-19 13:07:00,
2013-02-19 05:12:00,36.1,33.5,29.83,SE,135,4.0,-999.0,90,0.00,,,0.00,Wunderground v.1.15,2013-02-19 13:12:00,
2013-02-19 05:17:00,35.7,32.5,29.83,SE,135,5.0,-999.0,88,0.00,,,0.00,Wunderground v.1.15,2013-02-19 13:17:00,
2013-02-19 05:22:00,35.7,32.5,29.83,SE,135,5.0,-999.0,88,0.00,,,0.00,Wunderground v.1.15,2013-02-19 13:22:00,
2013-02-19 05:27:00,35.7,32.5,29.83,SE,135,5.0,-999.0,88,0.00,,,0.00,Wunderground v.1.15,2013-02-19 13:27:00,
2013-02-19 05:32:00,35.7,32.5,29.83,SE,135,5.0,-999.0,88,0.00,,,0.00,Wunderground v.1.15,2013-02-19 13:32:00,
2013-02-19 05:37:00,35.7,32.5,29.83,SE,135,5.0,-999.0,88,0.00,,,0.00,Wunderground v.1.15,2013-02-19 13:37:00,
2013-02-19 05:42:00,35.7,32.5,29.83,SE,135,5.0,-999.0,88,0.00,,,0.00,Wunderground v.1.15,2013-02-19 13:42:00,
2013-02-19 05:47:00,35.6,32.4,29.82,SE,135,6.0,-999.0,88,0.00,,,0.00,Wunderground v.1.15,2013-02-19 13:47:00,
2013-02-19 05:52:00,35.6,32.4,29.82,SE,135,6.0,-999.0,88,0.00,,,0.00,Wunderground v.1.15,2013-02-19 13:52:00,
2013-02-19 05:57:00,35.6,32.4,29.82,SE,135,6.0,-999.0,88,0.00,,,0.00,Wunderground v.1.15,2013-02-19 13:57:00,
2013-02-19 06:02:00,35.6,32.4,29.82,SE,135,6.0,-999.0,88,0.00,,,0.00,Wunderground v.1.15,2013-02-19 14:02:00,
2013-02-19 06:07:00,35.6,32.4,29.82,SE,135,6.0,-999.0,88,0.00,,,0.00,Wunderground v.1.15,2013-02-19 14:07:00,
2013-02-19 06:12:00,35.6,32.4,29.82,SE,135,6.0,-999.0,88,0.00,,,0.00,Wunderground v.1.15,2013-02-19 14:12:00,
2013-02-19 06:17:00,35.4,32.2,29.82,SE,135,5.0,-999.0,88,0.00,,,0.00,Wunderground v.1.15,2013-02-19 14:17:00,
2013-02-19 06:22:00,35.4,32.2,29.82,SE,135,5.0,-999.0,88,0.00,,,0.00,Wunderground v.1.15,2013-02-19 14:22:00,
2013-02-19 06:27:00,35.4,32.2,29.82,SE,135,5.0,-999.0,88,0.00,,,0.00,Wunderground v.1.15,2013-02-19 14:27:00,
2013-02-19 06:32:00,35.4,32.2,29.82,SE,135,5.0,-999.0,88,0.00,,,0.00,Wunderground v.1.15,2013-02-19 14:32:00,
2013-02-19 06:37:00,35.4,32.2,29.82,SE,135,5.0,-999.0,88,0.00,,,0.00,Wunderground v.1.15,2013-02-19 14:37:00,
2013-02-19 06:42:00,35.4,32.2,29.82,SE,135,5.0,-999.0,88,0.00,,,0.00,Wunderground v.1.15,2013-02-19 14:42:00,
2013-02-19 06:47:00,35.5,32.6,29.80,SE,135,6.0,-999.0,89,0.00,,,0.00,Wunderground v.1.15,2013-02-19 14:47:00,
2013-02-19 06:52:00,35.5,32.6,29.80,SE,135,6.0,-999.0,89,0.00,,,0.00,Wunderground v.1.15,2013-02-19 14:52:00,
2013-02-19 06:57:00,35.5,32.6,29.80,SE,135,6.0,-999.0,89,0.00,,,0.00,Wunderground v.1.15,2013-02-19 14:57:00,
2013-02-19 07:02:00,35.5,32.6,29.80,SE,135,6.0,-999.0,89,0.00,,,0.00,Wunderground v.1.15,2013-02-19 15:02:00,
2013-02-19 07:07:00,35.5,32.6,29.80,SE,135,6.0,-999.0,89,0.00,,,0.00,Wunderground v.1.15,2013-02-19 15:07:00,
2013-02-19 07:12:00,35.5,32.6,29.80,SE,135,6.0,-999.0,89,0.00,,,0.00,Wunderground v.1.15,2013-02-19 15:12:00,
2013-02-19 07:17:00,35.6,32.7,29.80,SE,135,5.0,-999.0,89,0.00,,,0.00,Wunderground v.1.15,2013-02-19 15:17:00,
2013-02-19 07:22:00,35.6,32.7,29.80,SE,135,5.0,-999.0,89,0.00,,,0.00,Wunderground v.1.15,2013-02-19 15:22:00,
2013-02-19 07:27:00,35.6,32.7,29.80,SE,135,5.0,-999.0,89,0.00,,,0.00,Wunderground v.1.15,2013-02-19 15:27:00,
2013-02-19 07:32:00,35.6,32.7,29.80,SE,135,5.0,-999.0,89,0.00,,,0.00,Wunderground v.1.15,2013-02-19 15:32:00,
2013-02-19 07:37:00,35.6,32.7,29.80,SE,135,5.0,-999.0,89,0.00,,,0.00,Wunderground v.1.15,2013-02-19 15:37:00,
2013-02-19 07:40:00,35.5,32.9,29.80,SSE,148,5.0,5.0,90,0.00,,,0.00,Wunderground v.1.15,2013-02-19 15:40:00,
2013-02-19 07:42:00,35.6,32.7,29.80,SE,135,5.0,-999.0,89,0.00,,,0.00,Wunderground v.1.15,2013-02-19 15:42:00,
2013-02-19 07:47:00,35.1,33.3,29.80,SE,135,5.0,-999.0,93,0.00,,,0.00,Wunderground v.1.15,2013-02-19 15:47:00,
2013-02-19 07:50:00,35.4,33.3,29.80,ESE,121,4.0,8.0,92,0.00,,,0.00,Wunderground v.1.15,2013-02-19 15:50:00,
2013-02-19 07:52:00,35.1,33.3,29.80,SE,135,5.0,-999.0,93,0.00,,,0.00,Wunderground v.1.15,2013-02-19 15:52:00,
2013-02-19 07:57:00,35.1,33.3,29.80,SE,135,5.0,-999.0,93,0.00,,,0.00,Wunderground v.1.15,2013-02-19 15:57:00,
2013-02-19 08:10:00,34.9,33.3,29.79,SE,145,5.0,6.0,94,0.00,,,0.00,Wunderground v.1.15,2013-02-19 16:10:00,
2013-02-19 08:20:00,34.5,33.0,29.78,SE,145,5.0,6.0,94,0.00,,,0.00,Wunderground v.1.15,2013-02-19 16:20:00,
2013-02-19 08:30:00,34.0,32.7,29.78,ESE,116,5.0,5.0,95,0.00,,,0.00,Wunderground v.1.15,2013-02-19 16:30:00,
2013-02-19 08:40:00,33.8,32.5,29.78,SE,133,5.0,5.0,95,0.00,,,0.01,Wunderground v.1.15,2013-02-19 16:40:00,
2013-02-19 08:50:00,33.9,32.9,29.77,ESE,121,5.0,7.0,96,0.00,,,0.01,Wunderground v.1.15,2013-02-19 16:50:00,
2013-02-19 09:00:00,33.7,32.7,29.77,ESE,115,4.0,4.0,96,0.00,,,0.01,Wunderground v.1.15,2013-02-19 17:00:00,
2013-02-19 09:10:00,33.7,32.7,29.76,SE,139,4.0,10.0,96,0.00,,,0.01,Wunderground v.1.15,2013-02-19 17:10:00,
2013-02-19 09:20:00,33.9,32.9,29.76,ESE,121,5.0,10.0,96,0.00,,,0.02,Wunderground v.1.15,2013-02-19 17:20:00,
2013-02-19 09:30:00,34.0,33.0,29.75,SSE,161,4.0,10.0,96,0.00,,,0.02,Wunderground v.1.15,2013-02-19 17:30:00,
2013-02-19 09:40:00,34.2,33.2,29.75,SSE,165,5.0,10.0,96,0.00,,,0.02,Wunderground v.1.15,2013-02-19 17:40:00,
2013-02-19 09:50:00,34.4,33.6,29.74,SE,145,5.0,10.0,97,0.00,,,0.03,Wunderground v.1.15,2013-02-19 17:50:00,
2013-02-19 10:00:00,34.6,33.8,29.74,SSE,165,5.0,10.0,97,0.00,,,0.03,Wunderground v.1.15,2013-02-19 18:00:00,
2013-02-19 10:10:00,35.0,34.2,29.73,ESE,121,5.0,10.0,97,0.00,,,0.04,Wunderground v.1.15,2013-02-19 18:10:00,
2013-02-19 10:20:00,35.0,34.2,29.73,SSE,167,5.0,10.0,97,0.04,,,0.05,Wunderground v.1.15,2013-02-19 18:20:00,
2013-02-19 10:30:00,34.8,34.0,29.74,SSE,149,5.0,5.0,97,0.04,,,0.05,Wunderground v.1.15,2013-02-19 18:30:00,
2013-02-19 10:40:00,34.9,34.1,29.73,SE,135,5.0,5.0,97,0.10,,,0.06,Wunderground v.1.15,2013-02-19 18:40:00,
2013-02-19 10:50:00,34.9,34.1,29.72,ESE,121,4.0,10.0,97,0.07,,,0.07,Wunderground v.1.15,2013-02-19 18:50:00,
2013-02-19 11:00:00,34.5,33.7,29.72,ESE,117,5.0,5.0,97,0.09,,,0.09,Wunderground v.1.15,2013-02-19 19:00:00,
2013-02-19 11:10:00,34.7,33.9,29.72,SE,124,4.0,10.0,97,0.06,,,0.10,Wunderground v.1.15,2013-02-19 19:10:00,
2013-02-19 11:20:00,35.2,34.4,29.72,South,180,4.0,4.0,97,0.06,,,0.11,Wunderground v.1.15,2013-02-19 19:20:00,
2013-02-19 11:30:00,35.2,34.4,29.72,SSW,211,3.0,10.0,97,0.14,,,0.13,Wunderground v.1.15,2013-02-19 19:30:00,
2013-02-19 11:40:00,35.0,34.2,29.72,SSE,158,2.0,2.0,97,0.15,,,0.14,Wunderground v.1.15,2013-02-19 19:40:00,
2013-02-19 11:50:00,34.7,33.9,29.72,SSE,153,3.0,10.0,97,0.12,,,0.16,Wunderground v.1.15,2013-02-19 19:50:00,
2013-02-19 12:10:00,33.5,32.5,29.71,SSE,155,1.0,1.0,96,0.00,,,0.16,Wunderground v.1.15,2013-02-19 20:10:00,
2013-02-19 12:20:00,33.2,32.4,29.70,SE,141,1.0,3.0,97,0.00,,,0.16,Wunderground v.1.15,2013-02-19 20:20:00,
2013-02-19 12:30:00,33.1,32.3,29.70,South,174,2.0,2.0,97,0.00,,,0.16,Wunderground v.1.15,2013-02-19 20:30:00,
2013-02-19 12:40:00,33.0,32.2,29.71,SE,124,1.0,1.0,97,0.00,,,0.16,Wunderground v.1.15,2013-02-19 20:40:00,
2013-02-19 12:50:00,33.0,32.2,29.71,SSE,165,0.0,0.0,97,0.00,,,0.16,Wunderground v.1.15,2013-02-19 20:50:00,
2013-02-19 13:00:00,33.1,32.3,29.71,SSW,210,0.0,0.0,97,0.00,,,0.16,Wunderground v.1.15,2013-02-19 21:00:00,
2013-02-19 13:10:00,33.2,32.4,29.70,SE,125,0.0,13.0,97,0.00,,,0.16,Wunderground v.1.15,2013-02-19 21:10:00,
2013-02-19 13:20:00,33.3,32.5,29.70,SE,145,0.0,13.0,97,0.00,,,0.16,Wunderground v.1.15,2013-02-19 21:20:00,
2013-02-19 13:30:00,33.3,32.5,29.70,SSE,156,0.0,13.0,97,0.00,,,0.16,Wunderground v.1.15,2013-02-19 21:30:00,
2013-02-19 13:40:00,33.3,32.5,29.70,SSE,152,0.0,13.0,97,0.00,,,0.16,Wunderground v.1.15,2013-02-19 21:40:00,
2013-02-19 13:50:00,33.4,32.6,29.70,South,181,0.0,13.0,97,0.00,,,0.16,Wunderground v.1.15,2013-02-19 21:50:00,
2013-02-19 14:00:00,33.3,32.5,29.69,ESE,117,0.0,13.0,97,0.00,,,0.16,Wunderground v.1.15,2013-02-19 22:00:00,
2013-02-19 14:10:00,33.2,32.4,29.69,East,98,0.0,13.0,97,0.00,,,0.16,Wunderground v.1.15,2013-02-19 22:10:00,
2013-02-19 14:20:00,33.2,32.4,29.70,ESE,103,0.0,13.0,97,0.00,,,0.16,Wunderground v.1.15,2013-02-19 22:20:00,
2013-02-19 14:30:00,33.0,32.2,29.70,ESE,104,0.0,13.0,97,0.00,,,0.16,Wunderground v.1.15,2013-02-19 22:30:00,
2013-02-19 14:40:00,33.1,32.3,29.70,East,101,0.0,13.0,97,0.00,,,0.16,Wunderground v.1.15,2013-02-19 22:40:00,
2013-02-19 14:50:00,33.0,32.2,29.70,East,88,1.0,1.0,97,0.00,,,0.16,Wunderground v.1.15,2013-02-19 22:50:00,
2013-02-19 15:00:00,33.1,32.3,29.70,East,89,2.0,2.0,97,0.00,,,0.16,Wunderground v.1.15,2013-02-19 23:00:00,
2013-02-19 15:10:00,33.5,32.7,29.70,East,89,0.0,13.0,97,0.00,,,0.16,Wunderground v.1.15,2013-02-19 23:10:00,
2013-02-19 15:20:00,33.6,32.8,29.70,East,89,0.0,13.0,97,0.00,,,0.16,Wunderground v.1.15,2013-02-19 23:20:00,
2013-02-19 15:30:00,33.5,32.7,29.70,East,89,0.0,13.0,97,0.00,,,0.16,Wunderground v.1.15,2013-02-19 23:30:00,
2013-02-19 15:40:00,33.4,32.6,29.70,ESE,117,1.0,13.0,97,0.00,,,0.16,Wunderground v.1.15,2013-02-19 23:40:00,
2013-02-19 15:50:00,33.5,32.7,29.70,East,98,2.0,2.0,97,0.00,,,0.16,Wunderground v.1.15,2013-02-19 23:50:00,
2013-02-19 16:10:00,33.5,32.7,29.70,ESE,104,3.0,3.0,97,0.00,,,0.16,Wunderground v.1.15,2013-02-20 00:10:00,
2013-02-19 16:20:00,33.6,32.8,29.70,East,83,3.0,5.0,97,0.00,,,0.16,Wunderground v.1.15,2013-02-20 00:20:00,
2013-02-19 16:30:00,33.6,32.8,29.70,East,101,2.0,2.0,97,0.00,,,0.16,Wunderground v.1.15,2013-02-20 00:30:00,
2013-02-19 16:40:00,33.7,32.9,29.70,ESE,121,1.0,1.0,97,0.00,,,0.17,Wunderground v.1.15,2013-02-20 00:40:00,
2013-02-19 16:50:00,33.7,32.9,29.70,East,97,1.0,1.0,97,0.00,,,0.17,Wunderground v.1.15,2013-02-20 00:50:00,
2013-02-19 17:00:00,33.6,32.8,29.70,East,89,2.0,2.0,97,0.00,,,0.17,Wunderground v.1.15,2013-02-20 01:00:00,
2013-02-19 17:10:00,33.6,32.8,29.70,East,99,1.0,4.0,97,0.00,,,0.17,Wunderground v.1.15,2013-02-20 01:10:00,
2013-02-19 17:20:00,33.6,32.8,29.70,ESE,111,2.0,4.0,97,0.00,,,0.17,Wunderground v.1.15,2013-02-20 01:20:00,
2013-02-19 17:30:00,33.4,32.6,29.71,East,94,1.0,4.0,97,0.00,,,0.17,Wunderground v.1.15,2013-02-20 01:30:00,
2013-02-19 17:40:00,33.3,32.5,29.70,ESE,104,2.0,4.0,97,0.00,,,0.17,Wunderground v.1.15,2013-02-20 01:40:00,
2013-02-19 17:50:00,33.2,32.4,29.71,ESE,110,2.0,2.0,97,0.00,,,0.17,Wunderground v.1.15,2013-02-20 01:50:00,
2013-02-19 18:00:00,33.1,32.3,29.71,ESE,103,1.0,4.0,97,0.00,,,0.17,Wunderground v.1.15,2013-02-20 02:00:00,
2013-02-19 18:10:00,33.0,32.2,29.72,ESE,106,1.0,4.0,97,0.00,,,0.17,Wunderground v.1.15,2013-02-20 02:10:00,
2013-02-19 18:20:00,33.0,32.2,29.72,East,94,2.0,2.0,97,0.00,,,0.17,Wunderground v.1.15,2013-02-20 02:20:00,
2013-02-19 18:30:00,33.0,32.2,29.72,East,94,0.0,4.0,97,0.00,,,0.17,Wunderground v.1.15,2013-02-20 02:30:00,
2013-02-19 18:40:00,32.9,32.1,29.72,ESE,106,1.0,4.0,97,0.00,,,0.17,Wunderground v.1.15,2013-02-20 02:40:00,
2013-02-19 18:50:00,32.8,32.0,29.72,East,94,1.0,4.0,97,0.00,,,0.17,Wunderground v.1.15,2013-02-20 02:50:00,
2013-02-19 19:00:00,32.7,31.9,29.72,ESE,103,0.0,4.0,97,0.00,,,0.17,Wunderground v.1.15,2013-02-20 03:00:00,
2013-02-19 19:33:00,32.8,32.3,29.73,WNW,293,0.0,-999.0,98,0.00,,,0.18,Wunderground v.1.15,2013-02-20 03:33:00,
2013-02-19 19:38:00,32.8,32.3,29.73,WNW,293,0.0,-999.0,98,0.00,,,0.18,Wunderground v.1.15,2013-02-20 03:38:00,
2013-02-19 19:43:00,32.8,32.3,29.73,WNW,293,0.0,-999.0,98,0.00,,,0.18,Wunderground v.1.15,2013-02-20 03:43:00,
2013-02-19 19:48:00,33.0,32.5,29.73,WNW,293,0.0,-999.0,98,0.00,,,0.18,Wunderground v.1.15,2013-02-20 03:48:00,
2013-02-19 19:53:00,33.0,32.5,29.73,WNW,293,0.0,-999.0,98,0.00,,,0.18,Wunderground v.1.15,2013-02-20 03:53:00,
2013-02-19 19:58:00,33.0,32.5,29.73,WNW,293,0.0,-999.0,98,0.00,,,0.18,Wunderground v.1.15,2013-02-20 03:58:00,
2013-02-19 20:03:00,33.0,32.5,29.73,WNW,293,0.0,-999.0,98,0.00,,,0.18,Wunderground v.1.15,2013-02-20 04:03:00,
2013-02-19 20:08:00,33.0,32.5,29.73,WNW,293,0.0,-999.0,98,0.00,,,0.18,Wunderground v.1.15,2013-02-20 04:08:00,
2013-02-19 20:13:00,33.0,32.5,29.73,WNW,293,0.0,-999.0,98,0.00,,,0.18,Wunderground v.1.15,2013-02-20 04:13:00,
2013-02-19 20:23:00,32.5,31.7,29.74,North,0,0.0,-999.0,97,0.00,,,0.18,Wunderground v.1.15,2013-02-20 04:23:00,
2013-02-19 20:28:00,32.5,31.7,29.74,North,0,0.0,-999.0,97,0.00,,,0.18,Wunderground v.1.15,2013-02-20 04:28:00,
2013-02-19 20:33:00,32.5,31.7,29.74,North,0,0.0,-999.0,97,0.00,,,0.18,Wunderground v.1.15,2013-02-20 04:33:00,
2013-02-19 20:38:00,32.5,31.7,29.74,North,0,0.0,-999.0,97,0.00,,,0.18,Wunderground v.1.15,2013-02-20 04:38:00,
2013-02-19 20:43:00,32.5,31.7,29.74,North,0,0.0,-999.0,97,0.00,,,0.18,Wunderground v.1.15,2013-02-20 04:43:00,
2013-02-19 20:48:00,32.1,31.3,29.74,NE,45,0.0,-999.0,97,0.01,,,0.18,Wunderground v.1.15,2013-02-20 04:48:00,
2013-02-19 20:53:00,32.1,31.3,29.74,NE,45,0.0,-999.0,97,0.01,,,0.18,Wunderground v.1.15,2013-02-20 04:53:00,
2013-02-19 20:58:00,32.1,31.3,29.74,NE,45,0.0,-999.0,97,0.01,,,0.18,Wunderground v.1.15,2013-02-20 04:58:00,
2013-02-19 21:03:00,32.1,31.3,29.74,NE,45,0.0,-999.0,97,0.01,,,0.18,Wunderground v.1.15,2013-02-20 05:03:00,
2013-02-19 21:08:00,32.1,31.3,29.74,NE,45,0.0,-999.0,97,0.01,,,0.18,Wunderground v.1.15,2013-02-20 05:08:00,
2013-02-19 21:13:00,32.1,31.3,29.74,NE,45,0.0,-999.0,97,0.01,,,0.18,Wunderground v.1.15,2013-02-20 05:13:00,
2013-02-19 21:18:00,31.9,31.1,29.74,ENE,68,0.0,-999.0,97,0.01,,,0.18,Wunderground v.1.15,2013-02-20 05:18:00,
2013-02-19 21:23:00,31.9,31.1,29.74,ENE,68,0.0,-999.0,97,0.01,,,0.18,Wunderground v.1.15,2013-02-20 05:23:00,
2013-02-19 21:28:00,31.9,31.1,29.74,ENE,68,0.0,-999.0,97,0.01,,,0.18,Wunderground v.1.15,2013-02-20 05:28:00,
2013-02-19 21:33:00,31.9,31.1,29.74,ENE,68,0.0,-999.0,97,0.01,,,0.18,Wunderground v.1.15,2013-02-20 05:33:00,
2013-02-19 21:38:00,31.9,31.1,29.74,ENE,68,0.0,-999.0,97,0.01,,,0.18,Wunderground v.1.15,2013-02-20 05:38:00,
2013-02-19 21:43:00,31.9,31.1,29.74,ENE,68,0.0,-999.0,97,0.01,,,0.18,Wunderground v.1.15,2013-02-20 05:43:00,
2013-02-19 21:48:00,32.0,31.2,29.75,NE,45,0.0,-999.0,97,0.00,,,0.18,Wunderground v.1.15,2013-02-20 05:48:00,
2013-02-19 21:53:00,32.0,31.2,29.75,NE,45,0.0,-999.0,97,0.00,,,0.18,Wunderground v.1.15,2013-02-20 05:53:00,
2013-02-19 21:58:00,32.0,31.2,29.75,NE,45,0.0,-999.0,97,0.00,,,0.18,Wunderground v.1.15,2013-02-20 05:58:00,
2013-02-19 22:03:00,32.0,31.2,29.75,NE,45,0.0,-999.0,97,0.00,,,0.18,Wunderground v.1.15,2013-02-20 06:03:00,
2013-02-19 22:08:00,32.0,31.2,29.75,NE,45,0.0,-999.0,97,0.00,,,0.18,Wunderground v.1.15,2013-02-20 06:08:00,
2013-02-19 22:13:00,32.0,31.2,29.75,NE,45,0.0,-999.0,97,0.00,,,0.18,Wunderground v.1.15,2013-02-20 06:13:00,
2013-02-19 22:18:00,31.2,30.4,29.76,West,270,0.0,-999.0,97,0.00,,,0.18,Wunderground v.1.15,2013-02-20 06:18:00,
2013-02-19 22:23:00,31.2,30.4,29.76,West,270,0.0,-999.0,97,0.00,,,0.18,Wunderground v.1.15,2013-02-20 06:23:00,
2013-02-19 22:28:00,31.2,30.4,29.76,West,270,0.0,-999.0,97,0.00,,,0.18,Wunderground v.1.15,2013-02-20 06:28:00,
2013-02-19 22:33:00,31.2,30.4,29.76,West,270,0.0,-999.0,97,0.00,,,0.18,Wunderground v.1.15,2013-02-20 06:33:00,
2013-02-19 22:38:00,31.2,30.4,29.76,West,270,0.0,-999.0,97,0.00,,,0.18,Wunderground v.1.15,2013-02-20 06:38:00,
2013-02-19 22:43:00,31.2,30.4,29.76,West,270,0.0,-999.0,97,0.00,,,0.18,Wunderground v.1.15,2013-02-20 06:43:00,
2013-02-19 22:48:00,31.2,30.4,29.76,West,270,0.0,-999.0,97,0.00,,,0.18,Wunderground v.1.15,2013-02-20 06:48:00,
2013-02-19 22:53:00,31.2,30.4,29.76,West,270,0.0,-999.0,97,0.00,,,0.18,Wunderground v.1.15,2013-02-20 06:53:00,
2013-02-19 22:58:00,31.2,30.4,29.76,West,270,0.0,-999.0,97,0.00,,,0.18,Wunderground v.1.15,2013-02-20 06:58:00,
2013-02-19 23:03:00,31.2,30.4,29.76,West,270,0.0,-999.0,97,0.00,,,0.18,Wunderground v.1.15,2013-02-20 07:03:00,
2013-02-19 23:08:00,31.2,30.4,29.76,West,270,0.0,-999.0,97,0.00,,,0.18,Wunderground v.1.15,2013-02-20 07:08:00,
2013-02-19 23:13:00,31.2,30.4,29.76,West,270,0.0,-999.0,97,0.00,,,0.18,Wunderground v.1.15,2013-02-20 07:13:00,
2013-02-19 23:18:00,31.4,30.6,29.77,NW,315,0.0,-999.0,97,0.00,,,0.18,Wunderground v.1.15,2013-02-20 07:18:00,
2013-02-19 23:23:00,31.4,30.6,29.77,NW,315,0.0,-999.0,97,0.00,,,0.18,Wunderground v.1.15,2013-02-20 07:23:00,
2013-02-19 23:28:00,31.4,30.6,29.77,NW,315,0.0,-999.0,97,0.00,,,0.18,Wunderground v.1.15,2013-02-20 07:28:00,
2013-02-19 23:33:00,31.4,30.6,29.77,NW,315,0.0,-999.0,97,0.00,,,0.18,Wunderground v.1.15,2013-02-20 07:33:00,
2013-02-19 23:38:00,31.4,30.6,29.77,NW,315,0.0,-999.0,97,0.00,,,0.18,Wunderground v.1.15,2013-02-20 07:38:00,
2013-02-19 23:43:00,31.4,30.6,29.77,NW,315,0.0,-999.0,97,0.00,,,0.18,Wunderground v.1.15,2013-02-20 07:43:00,
2013-02-19 23:48:00,31.0,30.2,29.78,NW,315,0.0,-999.0,97,0.00,,,0.18,Wunderground v.1.15,2013-02-20 07:48:00,
2013-02-19 23:53:00,31.0,30.2,29.78,NW,315,0.0,-999.0,97,0.00,,,0.18,Wunderground v.1.15,2013-02-20 07:53:00,
2013-02-19 23:58:00,31.0,30.2,29.78,NW,315,0.0,-999.0,97,0.00,,,0.18,Wunderground v.1.15,2013-02-20 07:58:00,